カタログに戻る

FENGYUN 1C DEB

運用中SSO
NORAD 32350·DEBRIS·🇨🇳 China

打ち上げ May 10, 1999 から Taiyuan Satellite Launch Center

Loading…

次のパス (今後24時間)

TLE

最新Source: Space-Track

元期: Sep 12, 2026, 08:53 UTC

1 32350U 99025CYT 26255.37079956  .00002373  00000-0  35793-3 0  9999
2 32350  98.1942 300.1954 0260728 172.2314 188.3046 14.54888588 14841

AllMySatでFENGYUN 1C DEBをリアルタイム追跡

Download on the App Store